SCP
-0 0 0 0 0 0 0 0 0 0 0 1 3 4 5 6 7 4 3 3 3 3 3 4 6 7 5 5 6 7 8 7 6 7 7 5 2 1 1 1 1 1 1 1
0 0 0 0 0 0 0 0 0 0 1 2 3 4 5 5 5 4 3 3 3 3 3 4 5 5 4 4 5 6 6 6 5 6 6 4 2 1 1 1 1 1 1 1
0 0 0 0 0 0 0 0 0 1 1 2 3 3 4 4 4 3 3 3 3 3 3 4 4 4 3 3 3 3 4 4 4 5 4 3 1 1 1 1 1 1 1 1
0 0 0 0 0 0 0 0 0 1 1 1 1 2 3 3 3 3 3 3 3 3 4 4 5 4 3 3 3 3 3 4 4 5 4 2 1 1 1 2 2 2 2 2
0 0 0 0 0 0 0 0 0 0 0 0 0 1 1 2 2 2 2 2 2 3 4 5 5 4 3 3 4 4 5 5 5 5 4 3 2 2 2 2 3 3 3 3
0 0 0 0 0 0 0 0 0 0 0 0 0 0 1 1 2 2 3 3 3 4 4 5 5 4 4 4 4 5 6 7 7 7 6 4 3 3 3 3 3 3 4 4
0 0 0 0 0 0 0 0 0 0 0 0 0 1 1 1 2 4 5 6 5 5 5 5 5 4 4 4 5 6 7 8 8 8 7 5 4 4 3 3 3 3 4 4
0 0 0 0 0 0 0 0 0 0 0 0 1 1 1 2 4 6 8 9 9 9 9 8 7 6 5 4 5 6 7 8 9 8 8 6 6 5 4 4 3 3 3 3
0 0 0 0 0 0 0 0 0 0 0 0 1 1 2 3 6 8 10 11 13 13 12 10 9 7 5 5 5 6 6 6 8 8 8 7 6 6 5 4 3 3 3 3
0 0 0 0 0 0 0 0 0 0 0 0 1 1 2 4 6 8 9 10 12 12 10 9 7 6 5 4 5 5 4 4 6 7 7 7 6 5 5 5 4 3 3 3
0 0 0 0 0 0 0 0 0 0 0 0 1 1 2 3 4 5 6 7 8 8 7 6 5 5 4 3 4 4 4 4 4 6 6 6 5 5 5 5 4 4 3 3
0 0 0 0 0 0 0 0 0 0 0 0 1 1 2 3 3 3 4 4 5 5 5 5 5 5 4 3 3 4 4 4 4 5 6 6 5 5 4 4 4 4 4 3
0 0 0 0 0 0 0 0 0 0 0 0 1 1 2 3 3 3 3 3 4 4 5 6 6 6 5 4 3 4 4 4 5 6 7 7 6 5 4 3 3 3 3 3
0 0 0 0 0 0 0 0 0 0 0 0 1 2 2 3 3 3 3 3 3 4 4 5 6 6 5 4 4 4 4 5 5 6 8 8 7 6 5 3 3 3 2 2
0 0 0 0 0 0 1 1 0 0 0 1 2 2 2 2 2 2 2 3 3 4 4 5 5 5 5 5 4 4 4 5 5 6 8 8 8 7 6 4 3 3 3 2
0 0 0 0 0 0 1 1 1 1 1 1 2 2 1 1 1 1 1 2 3 3 4 4 4 5 5 5 4 4 4 5 6 6 7 8 9 8 7 5 4 4 3 3
0 0 0 0 0 0 1 1 1 1 1 1 2 2 1 1 1 1 1 1 2 3 4 4 4 4 4 4 4 3 3 5 6 6 6 7 8 9 8 7 6 5 5 5
0 0 0 0 0 0 0 0 0 1 1 1 1 2 2 2 3 2 2 2 2 3 4 4 4 4 4 3 3 2 3 4 6 6 5 6 7 8 9 9 8 7 7 7
0 0 0 0 0 0 0 0 0 1 2 2 2 2 2 3 4 4 3 3 4 4 4 4 4 4 4 3 2 2 2 3 5 5 5 5 6 7 9 9 9 8 8 8
0 0 0 0 0 0 0 0 1 1 2 3 3 2 2 2 3 3 3 4 5 5 4 4 4 4 4 3 2 2 2 2 3 4 5 5 6 7 8 9 8 8 8 8
0 0 0 0 0 0 0 1 1 1 2 3 3 3 2 1 2 2 2 3 4 4 4 3 3 3 4 4 3 3 2 2 2 3 4 5 6 7 8 9 9 9 8 8
0 0 0 0 0 0 1 1 1 2 3 4 4 3 2 2 1 1 1 2 2 2 2 2 2 2 2 3 3 4 3 3 3 3 4 4 5 6 8 9 10 10 10 9
0 0 0 0 0 0 1 1 1 2 3 4 4 3 3 3 2 2 1 1 2 2 2 2 1 1 1 1 2 3 4 4 4 4 3 3 4 5 7 9 10 11 11 11
0 0 0 0 0 0 1 1 1 2 3 4 4 3 3 3 3 2 2 2 2 2 2 1 1 1 1 1 1 2 3 3 4 4 4 3 3 4 6 8 9 11 12 11
0 0 0 0 0 0 1 1 1 1 2 2 3 2 2 2 3 2 2 2 2 2 2 2 1 1 1 1 1 1 2 2 3 3 4 3 3 4 5 7 8 9 10 10
0 0 0 0 0 0 1 1 0 1 1 1 2 2 2 2 2 3 3 3 3 2 2 2 1 1 1 1 1 1 1 2 2 2 3 3 4 4 5 6 7 8 9 9
Wind_Speed
2 2 4 8 8 7 4 3 6 9 7 2 3 3 5 6 7 8 8 9 8 7 6 7 8 9 8 7 7 6 6 4 4 2 2 2 1 1 0 0 0 0 0 1
2 6 12 8 6 5 5 6 7 7 4 2 3 2 4 6 9 10 10 9 8 6 5 7 8 7 8 8 7 7 6 5 4 3 3 2 2 1 1 1 0 0 1 0
7 9 6 6 7 6 7 6 6 5 4 3 3 2 1 1 3 5 8 7 8 10 10 9 8 7 8 8 8 7 6 6 5 4 2 2 1 1 0 0 0 1 1 1
6 8 5 6 7 7 7 8 6 3 1 2 2 2 4 1 1 3 5 6 7 8 8 8 8 8 8 8 8 7 7 6 5 4 4 4 3 2 3 2 2 1 1 1
6 4 4 6 8 6 7 5 2 1 2 1 3 2 5 0 1 4 5 8 9 8 9 9 9 9 8 7 7 7 6 5 5 5 5 5 3 3 1 1 1 1 1 2
8 6 4 6 6 3 2 4 6 6 5 2 3 2 5 4 6 5 4 7 8 8 8 7 7 6 6 5 6 6 6 5 5 5 4 5 4 3 2 2 2 2 1 2
6 6 4 2 2 3 4 6 5 5 5 4 3 2 6 6 5 7 7 7 6 5 6 6 6 6 5 6 6 6 6 5 5 5 4 5 4 4 4 4 3 2 2 2
1 6 4 1 3 3 2 8 8 5 4 4 2 2 5 4 1 3 5 6 6 4 5 5 5 5 5 5 6 6 6 5 5 5 5 4 4 3 3 3 3 3 3 3
2 5 5 3 1 5 2 2 7 7 2 0 2 3 5 3 3 3 5 7 5 5 4 4 4 4 5 4 4 4 5 5 4 4 4 3 3 3 3 3 2 2 2 2
5 2 5 4 3 3 4 5 6 5 4 1 2 2 3 2 1 2 5 5 4 4 5 5 4 3 3 3 3 4 3 4 3 3 3 3 2 2 2 2 2 2 2 2
4 2 5 4 2 1 3 3 4 4 5 6 2 5 5 6 5 5 5 5 5 5 5 5 4 3 3 3 2 2 3 3 3 3 2 2 2 2 1 1 2 2 2 2
3 5 2 4 4 1 3 3 5 4 2 4 4 5 4 4 3 5 5 4 4 4 4 5 5 4 4 3 2 2 3 3 3 3 3 2 2 2 2 2 2 1 2 2
4 6 2 7 7 6 3 2 3 5 4 3 4 4 2 3 4 3 4 5 4 4 4 4 4 4 4 4 3 2 2 2 3 3 3 2 2 1 2 2 2 1 1 2
6 5 5 6 5 2 3 4 1 4 3 3 5 5 2 2 4 3 3 4 5 4 4 4 3 2 2 2 3 2 1 1 2 2 3 3 3 3 3 3 2 2 2 2
6 4 1 2 2 1 3 4 2 2 6 7 6 7 7 7 7 6 4 4 5 5 4 4 3 2 1 1 1 2 1 1 2 2 2 2 2 2 2 2 2 2 2 2
4 3 2 2 3 3 4 5 3 2 3 5 6 4 5 4 5 6 5 5 5 5 4 3 3 2 2 1 1 2 2 2 2 2 2 1 1 1 1 1 2 2 2 2
3 4 3 2 4 4 4 4 2 1 2 6 6 6 5 6 6 6 6 6 5 4 4 3 3 2 1 1 1 2 2 2 2 2 2 2 2 1 1 1 1 1 2 2
5 4 3 0 3 1 6 3 2 4 2 2 5 6 8 8 6 4 5 7 5 4 3 2 1 1 1 1 1 1 2 2 2 2 1 1 2 2 1 1 1 1 1 2
6 6 3 2 1 3 4 3 1 4 2 2 5 6 6 6 6 3 2 5 5 4 3 3 2 2 1 1 1 2 2 2 2 2 2 2 2 2 2 2 2 2 2 1
5 6 5 3 2 3 5 4 0 6 1 2 4 6 5 5 3 3 2 4 4 4 3 2 2 2 2 1 2 3 2 2 1 2 2 2 2 2 2 2 2 1 1 2
2 2 2 3 3 5 5 4 3 3 6 2 3 5 5 4 5 5 4 3 3 4 3 3 3 2 1 1 2 2 1 1 2 1 1 1 2 2 2 2 1 1 1 1
3 2 2 3 3 6 5 3 2 5 3 3 3 3 4 4 4 4 4 3 3 3 3 3 2 1 0 1 2 1 1 2 1 1 1 1 1 2 1 1 1 1 1 1
2 5 4 5 6 5 2 1 2 3 3 3 3 3 4 5 4 4 3 3 3 3 3 2 2 1 1 1 1 1 2 1 1 1 1 1 1 1 1 2 2 1 1 2
3 0 2 1 2 2 0 1 2 1 2 2 4 4 5 5 4 4 4 3 3 3 3 2 2 1 1 2 1 2 2 1 2 2 1 1 1 1 0 0 1 1 2 2
3 0 1 1 2 1 2 0 0 1 2 3 3 4 5 5 4 4 4 4 4 3 3 3 3 3 3 2 2 2 1 1 2 1 2 1 1 1 1 1 1 2 3 3
2 3 3 5 5 4 4 3 1 1 1 3 3 3 2 4 5 4 3 3 3 3 2 2 2 2 2 2 2 2 2 2 2 1 1 2 1 1 1 1 1 3 1 2
Wind_Direction
255 106 230 231 207 208 230 265 274 271 273 182 187 164 173 152 135 146 156 160 164 171 172 155 153 153 148 139 137 139 140 144 135 127 131 132 154 171 163 190 149 144 138 146
9 247 235 233 236 229 246 260 270 287 301 128 146 161 182 159 159 165 166 166 163 152 148 154 154 154 156 151 150 151 155 158 161 166 170 171 171 188 199 222 173 197 159 180
209 242 237 227 242 248 257 233 242 256 337 36 105 17 327 216 151 155 152 158 158 164 162 158 158 159 161 162 165 166 169 167 170 163 140 120 80 53 25 326 267 254 188 170
241 251 246 236 240 220 250 241 219 220 77 299 102 198 274 247 110 156 156 158 169 166 163 165 167 167 175 178 170 166 167 168 171 160 159 157 161 186 210 212 222 242 225 210
256 255 230 236 241 222 232 240 214 197 134 33 11 129 276 349 210 233 197 175 175 172 173 176 174 173 177 176 171 168 165 170 175 173 175 173 182 199 200 195 197 228 246 235
253 263 223 228 252 224 165 53 34 47 70 40 265 148 266 237 207 204 189 178 181 178 179 178 167 152 156 161 163 163 164 176 179 177 178 178 180 180 166 183 198 221 241 247
301 294 273 240 301 334 72 78 34 5 20 259 266 154 247 259 199 172 165 166 168 168 164 160 157 155 160 160 164 172 172 178 183 179 182 185 183 178 183 191 197 202 222 236
269 297 288 273 187 194 176 134 152 183 208 269 324 228 269 281 190 144 136 132 123 125 139 146 152 152 158 166 170 177 177 178 181 183 190 187 180 181 196 196 193 202 216 226
185 268 295 294 226 148 143 164 164 137 144 99 294 302 317 14 47 83 108 111 125 132 133 125 122 139 147 151 161 173 180 175 183 190 190 188 185 183 193 197 192 203 217 213
164 263 299 308 17 17 148 145 91 107 138 211 282 261 244 235 146 109 109 116 132 127 115 112 123 142 146 149 145 149 159 177 183 185 187 177 183 195 197 188 194 198 204 187
132 158 308 4 33 265 42 65 99 116 144 151 198 266 240 197 180 154 145 141 133 134 142 142 137 141 129 110 117 148 175 173 168 177 185 171 177 179 167 185 217 209 190 169
130 121 274 277 277 187 128 140 130 136 208 156 156 257 284 172 162 141 142 139 124 125 144 148 139 130 127 139 155 160 181 177 181 179 174 182 176 168 180 205 231 218 188 172
110 102 37 339 344 5 40 29 110 127 121 144 156 244 300 103 95 113 130 128 119 114 114 120 122 125 136 145 154 158 167 180 176 161 160 163 165 180 200 210 219 202 182 161
108 107 153 195 229 266 313 320 21 106 135 180 196 191 216 151 140 122 119 124 118 108 109 106 107 115 127 141 154 154 160 173 160 153 153 167 191 202 209 209 192 164 164 175
88 108 149 231 262 278 293 298 283 189 180 179 200 185 200 188 172 156 139 124 117 115 109 116 121 122 114 106 124 124 122 128 141 138 147 182 202 203 203 202 187 159 164 187
76 104 66 344 337 349 323 317 294 240 176 157 149 199 214 176 146 137 140 134 128 126 124 123 114 111 121 129 150 128 123 137 128 129 162 177 161 162 180 188 163 145 159 185
85 105 90 303 321 16 317 284 247 203 168 158 179 197 159 140 145 157 152 144 142 135 132 133 138 142 151 152 144 144 139 122 117 126 139 140 141 142 171 168 137 152 185 190
126 108 117 72 31 238 251 282 96 100 60 103 127 140 147 151 156 152 144 140 143 143 138 138 125 134 140 109 81 104 112 116 130 143 142 138 138 146 149 132 138 161 168 165
138 130 117 116 161 276 297 323 51 121 33 23 111 120 123 117 84 53 123 134 147 151 149 150 148 145 123 110 111 103 106 127 134 156 174 182 163 156 149 154 175 183 177 198
81 102 118 129 154 229 256 288 150 97 38 311 121 130 136 116 117 226 184 128 130 130 129 127 115 97 88 89 121 111 117 119 162 199 196 182 165 157 165 174 191 201 185 206
42 61 138 176 204 255 272 303 46 130 219 226 152 146 140 151 185 189 164 141 145 141 138 129 120 117 136 103 100 109 125 191 216 204 179 176 166 161 174 175 180 174 177 175
164 158 187 158 184 248 306 19 118 209 194 154 147 151 140 142 138 142 152 155 150 139 133 130 128 133 201 119 111 114 250 244 204 149 156 191 193 192 182 174 202 202 178 191
156 185 187 182 206 234 267 178 219 166 148 158 152 154 139 132 140 153 165 162 153 147 153 154 154 163 248 238 148 180 256 238 170 157 192 208 208 202 202 195 207 215 206 208
301 167 127 132 246 247 292 56 31 67 144 158 150 147 141 143 153 166 177 170 158 160 165 166 158 177 242 257 223 216 241 208 154 174 215 218 196 220 236 221 207 199 209 215
249 337 98 234 257 357 346 293 236 25 99 106 116 130 139 145 160 170 176 177 171 168 175 171 177 198 232 247 250 246 219 163 154 184 211 226 206 198 203 251 245 233 228 212
234 185 187 224 222 187 234 244 240 133 156 142 131 121 133 154 165 159 161 172 170 173 178 181 191 202 229 230 241 242 214 170 159 190 224 230 219 202 196 188 326 351 336 279